TimeCDT,TemperatureF,Dew PointF,Humidity,Sea Level PressureIn,VisibilityMPH,Wind Direction,Wind SpeedMPH,Gust SpeedMPH,PrecipitationIn,Events,Conditions,WindDirDegrees,DateUTC
12:53 AM,54.0,48.0,80,30.06,10.0,WNW,5.8,-,N/A,,Partly Cloudy,300,2013-10-06 05:53:00
1:53 AM,54.0,48.0,80,30.07,10.0,WNW,5.8,-,N/A,,Partly Cloudy,300,2013-10-06 06:53:00
2:53 AM,53.1,48.0,83,30.06,10.0,West,5.8,-,N/A,,Partly Cloudy,270,2013-10-06 07:53:00
3:53 AM,53.1,48.9,86,30.05,10.0,West,6.9,-,N/A,,Clear,260,2013-10-06 08:53:00
4:53 AM,52.0,46.9,83,30.05,10.0,WSW,4.6,-,N/A,,Clear,250,2013-10-06 09:53:00
5:53 AM,53.1,46.9,80,30.05,10.0,WNW,4.6,-,N/A,,Clear,290,2013-10-06 10:53:00
6:53 AM,51.1,45.0,80,30.07,10.0,NW,3.5,-,N/A,,Partly Cloudy,320,2013-10-06 11:53:00
7:53 AM,54.0,46.0,75,30.08,10.0,NW,13.8,-,N/A,,Partly Cloudy,310,2013-10-06 12:53:00
8:53 AM,57.0,45.0,64,30.10,10.0,NW,15.0,-,N/A,,Partly Cloudy,320,2013-10-06 13:53:00
9:53 AM,60.1,45.0,57,30.12,10.0,NW,12.7,-,N/A,,Partly Cloudy,320,2013-10-06 14:53:00
10:53 AM,64.9,42.1,43,30.12,10.0,NW,10.4,-,N/A,,Partly Cloudy,320,2013-10-06 15:53:00
11:53 AM,66.9,41.0,39,30.12,10.0,NW,13.8,-,N/A,,Clear,320,2013-10-06 16:53:00
12:53 PM,69.1,36.0,30,30.11,10.0,NW,11.5,-,N/A,,Clear,320,2013-10-06 17:53:00
1:53 PM,71.1,34.0,26,30.09,10.0,NNW,10.4,-,N/A,,Clear,340,2013-10-06 18:53:00
2:53 PM,73.0,30.9,21,30.06,10.0,NW,15.0,23.0,N/A,,Clear,320,2013-10-06 19:53:00
3:53 PM,75.0,28.9,18,30.04,10.0,NW,13.8,26.5,N/A,,Clear,320,2013-10-06 20:53:00
4:53 PM,77.0,30.0,18,30.02,10.0,NW,18.4,25.3,N/A,,Clear,320,2013-10-06 21:53:00
5:53 PM,77.0,28.9,17,30.01,10.0,NW,15.0,-,N/A,,Clear,320,2013-10-06 22:53:00
6:53 PM,73.9,30.0,20,30.03,10.0,NW,16.1,-,N/A,,Clear,320,2013-10-06 23:53:00
7:53 PM,71.1,33.1,25,30.04,10.0,NW,11.5,-,N/A,,Clear,310,2013-10-07 00:53:00
8:53 PM,68.0,34.0,28,30.05,10.0,NW,10.4,-,N/A,,Clear,320,2013-10-07 01:53:00
9:53 PM,63.0,37.0,38,30.07,10.0,NNW,5.8,-,N/A,,Clear,330,2013-10-07 02:53:00
10:53 PM,62.1,39.0,43,30.08,10.0,NW,5.8,-,N/A,,Clear,320,2013-10-07 03:53:00
11:53 PM,55.0,39.9,57,30.07,10.0,NW,5.8,-,N/A,,Clear,320,2013-10-07 04:53:00